FW8756 Weather Reports


Display with metric or nautical units.
time (UTC)temp
F
wind
direction
speed
MPH
gust
MPH
rain 1hr
in
rain 24hr
in
rain mn
in
humidity
%
barometer
mb
20260902134811 82 247 4.0 6.0 0.00 0.00 0.00 83 1013.7
20260902134307 82 251 6.0 7.0 0.00 0.00 0.00 82 1013.7
20260902133802 82 161 1.0 2.0 0.00 0.00 0.00 83 1013.6
20260902133301 82 192 3.0 5.0 0.00 0.00 0.00 83 1013.4
20260902132756 82 266 4.0 5.0 0.00 0.00 0.00 83 1013.7
20260902132252 82 267 3.0 5.0 0.00 0.00 0.00 82 1013.7
20260902131747 82 198 1.0 2.0 0.00 0.00 0.00 82 1013.6
20260902131244 82 204 1.0 2.0 0.00 0.00 0.00 82 1013.3
20260902130743 82 237 3.0 3.0 0.00 0.00 0.00 82 1013.6
20260902130239 82 265 6.0 7.0 0.00 0.00 0.00 82 1013.4
20260902125734 82 271 7.0 11.0 0.00 0.00 0.00 82 1013.2
20260902125230 82 293 9.0 10.0 0.00 0.00 0.00 82 1013.3
20260902124726 82 255 6.0 7.0 0.00 0.00 0.00 82 1013.1
20260902124222 82 241 6.0 8.0 0.00 0.00 0.00 82 1013.0
20260902123717 82 190 3.0 5.0 0.00 0.00 0.00 82 1012.7
20260902123213 82 231 4.0 5.0 0.00 0.00 0.00 82 1012.7
20260902122711 82 267 6.0 9.0 0.00 0.00 0.00 82 1012.3
20260902122208 82 214 4.0 5.0 0.00 0.00 0.00 82 1012.2
20260902121702 82 263 6.0 8.0 0.00 0.00 0.00 82 1012.2
20260902121156 82 275 6.0 8.0 0.00 0.00 0.00 82 1012.0
20260902120653 82 268 7.0 9.0 0.00 0.00 0.00 82 1012.2
20260902120149 82 265 9.0 10.0 0.00 0.00 0.00 82 1011.9
20260902115648 82 307 10.0 11.0 0.00 0.00 0.00 82 1011.9
20260902115145 82 259 8.0 9.0 0.00 0.00 0.00 82 1012.0
20260902114640 82 252 5.0 7.0 0.00 0.00 0.00 82 1012.0
20260902114135 82 263 5.0 6.0 0.00 0.00 0.00 81 1011.9
20260902113631 81 238 4.0 6.0 0.00 0.00 0.00 81 1011.9
20260902113126 82 310 4.0 7.0 0.00 0.00 0.00 81 1012.0
20260902112620 81 271 8.0 9.0 0.00 0.00 0.00 81 1011.8
20260902112118 81 296 6.0 8.0 0.00 0.00 0.00 81 1011.6
20260902111608 81 259 8.0 11.0 0.00 0.00 0.00 81 1011.8
20260902111103 81 229 5.0 7.0 0.00 0.00 0.00 80 1011.8
20260902110559 81 283 8.0 13.0 0.00 0.00 0.00 80 1011.8
20260902110055 81 264 6.0 7.0 0.00 0.00 0.00 80 1011.7
20260902105549 81 283 4.0 5.0 0.00 0.00 0.00 80 1011.6
20260902105049 81 253 3.0 5.0 0.00 0.00 0.00 79 1011.4
20260902104545 82 248 4.0 7.0 0.00 0.00 0.00 79 1011.4
20260902104039 82 307 7.0 11.0 0.00 0.00 0.00 78 1011.6
20260902103534 82 260 6.0 8.0 0.00 0.00 0.00 78 1011.8
20260902103029 82 190 4.0 7.0 0.00 0.00 0.00 78 1011.7
20260902102526 82 263 7.0 8.0 0.00 0.00 0.00 78 1012.0
20260902102023 81 265 6.0 9.0 0.00 0.00 0.00 78 1011.6
20260902101518 81 270 3.0 5.0 0.00 0.00 0.00 79 1011.9
20260902101017 81 188 3.0 3.0 0.00 0.00 0.00 80 1011.9
20260902100512 81 274 3.0 3.0 0.00 0.00 0.00 80 1011.9
20260902100012 81 278 5.0 8.0 0.00 0.00 0.00 80 1012.2
20260902095511 81 256 4.0 6.0 0.00 0.00 0.00 80 1011.9
20260902095010 81 248 1.0 2.0 0.00 0.00 0.00 80 1012.1
20260902094506 81 234 3.0 3.0 0.00 0.00 0.00 80 1012.2
20260902094001 81 285 3.0 5.0 0.00 0.00 0.00 80 1011.9
20260902093456 81 237 4.0 6.0 0.00 0.00 0.00 80 1011.7
20260902092955 81 259 7.0 9.0 0.00 0.00 0.00 80 1011.6
20260902092451 81 270 6.0 8.0 0.00 0.00 0.00 80 1011.7
20260902091950 81 195 1.0 1.0 0.00 0.00 0.00 80 1011.9
20260902091446 81 273 6.0 7.0 0.00 0.00 0.00 80 1011.7
20260902090942 81 277 6.0 7.0 0.00 0.00 0.00 80 1011.7
20260902090437 81 254 6.0 8.0 0.00 0.00 0.00 80 1011.4
20260902085936 81 240 4.0 5.0 0.00 0.00 0.00 79 1011.7
20260902085431 82 269 6.0 7.0 0.00 0.00 0.00 79 1011.8
20260902084927 81 266 5.0 7.0 0.00 0.00 0.00 79 1011.8
20260902084423 81 251 0.0 1.0 0.00 0.00 0.00 80 1011.8
20260902083919 81 259 5.0 6.0 0.00 0.00 0.00 80 1011.8
20260902083418 81 247 4.0 6.0 0.00 0.00 0.00 81 1011.8
20260902082913 81 265 3.0 5.0 0.00 0.00 0.00 81 1012.0
20260902082409 81 257 3.0 5.0 0.00 0.00 0.00 81 1011.9
20260902081906 81 258 5.0 6.0 0.00 0.00 0.00 82 1011.9
20260902081401 80 279 8.0 9.0 0.00 0.00 0.00 82 1011.6
20260902080856 80 253 7.0 8.0 0.00 0.00 0.00 82 1011.6
20260902080353 80 219 5.0 6.0 0.00 0.00 0.00 82 1011.7
20260902075852 80 258 6.0 7.0 0.00 0.00 0.00 82 1011.6
20260902075348 80 254 5.0 7.0 0.00 0.00 0.00 82 1012.0
20260902074843 80 209 3.0 3.0 0.00 0.00 0.00 83 1012.0
20260902074339 80 266 8.0 9.0 0.00 0.00 0.00 83 1011.9
20260902073833 80 246 4.0 5.0 0.00 0.00 0.00 83 1011.9
20260902073330 80 258 5.0 7.0 0.00 0.00 0.00 83 1012.1
20260902072826 80 148 4.0 5.0 0.00 0.00 0.00 84 1012.1
20260902072321 80 256 8.0 9.0 0.00 0.00 0.00 83 1012.0
20260902071818 80 205 4.0 6.0 0.00 0.00 0.00 84 1012.0
20260902071312 80 263 3.0 3.0 0.00 0.00 0.00 83 1011.8
20260902070809 80 262 7.0 8.0 0.00 0.00 0.00 84 1011.8
20260902070308 80 248 5.0 8.0 0.00 0.00 0.00 84 1012.1
20260902065807 80 187 3.0 5.0 0.00 0.00 0.00 83 1012.2
20260902065306 80 230 3.0 5.0 0.00 0.00 0.00 83 1012.1
20260902064758 80 317 6.0 8.0 0.00 0.00 0.00 84 1012.1
20260902064254 80 228 1.0 2.0 0.00 0.00 0.00 84 1012.3
20260902063749 80 187 0.0 2.0 0.00 0.00 0.00 84 1012.2
20260902063244 80 253 7.0 9.0 0.00 0.00 0.00 84 1011.8
20260902062743 80 244 1.0 2.0 0.00 0.00 0.00 84 1012.0
20260902062238 80 195 4.0 6.0 0.00 0.00 0.00 84 1012.2
20260902061737 80 235 5.0 7.0 0.00 0.00 0.00 84 1012.0
20260902061232 80 194 0.0 1.0 0.00 0.00 0.00 85 1012.0
20260902060730 80 267 3.0 6.0 0.00 0.00 0.00 85 1012.3
20260902060225 79 201 4.0 5.0 0.00 0.00 0.00 85 1012.2
20260902055720 79 261 4.0 6.0 0.00 0.00 0.00 85 1012.1
20260902055216 79 168 1.0 3.0 0.00 0.00 0.00 85 1012.0
20260902054712 80 251 3.0 3.0 0.00 0.00 0.00 85 1011.8
20260902054207 80 228 1.0 2.0 0.00 0.00 0.00 85 1011.9
20260902053702 80 166 0.0 0.0 0.00 0.00 0.00 85 1012.0
20260902053202 80 274 1.0 2.0 0.00 0.00 0.00 85 1012.0
20260902052701 79 296 3.0 3.0 0.00 0.00 0.00 85 1011.9
20260902052157 80 150 0.0 0.0 0.00 0.00 0.00 86 1011.8
20260902051655 80 157 0.0 0.0 0.00 0.00 0.00 85 1012.1
20260902051150 80 237 2.0 3.0 0.00 0.00 0.00 85 1012.0
20260902050645 80 201 0.0 1.0 0.00 0.00 0.00 84 1012.1
20260902050141 80 195 0.0 0.0 0.00 0.00 0.00 85 1012.1
20260902045635 80 278 0.0 1.0 0.00 0.00 0.00 85 1012.3
20260902045132 79 191 0.0 0.0 0.00 0.00 0.00 86 1012.5
20260902044626 79 169 0.0 1.0 0.00 0.00 0.00 86 1012.5
20260902044122 79 302 0.0 2.0 0.00 0.00 0.00 87 1012.3
20260902043616 79 185 0.0 1.0 0.00 0.00 0.00 89 1012.2
20260902043112 78 172 2.0 2.0 0.00 0.00 0.00 90 1012.1
20260902042606 78 163 1.0 1.0 0.00 0.00 0.00 91 1012.0
20260902042102 78 205 0.0 1.0 0.00 0.00 0.00 91 1012.0
20260902041601 77 161 0.0 0.0 0.00 0.00 0.00 92 1012.0
20260902041055 77 157 0.0 0.0 0.00 0.00 0.00 92 1012.2
20260902040550 77 152 0.0 0.0 0.00 0.00 0.00 92 1012.0
20260902040045 77 151 0.0 0.0 0.00 0.00 0.00 93 1012.1
20260902035543 77 196 0.0 0.0 0.00 0.00 0.00 93 1012.1
20260902035039 77 154 0.0 0.0 0.00 0.00 0.00 93 1012.1
20260902034538 77 159 0.0 0.0 0.00 0.00 0.00 93 1011.9
20260902034037 77 137 0.0 0.0 0.00 0.00 0.00 93 1012.0
20260902033536 77 153 0.0 0.0 0.00 0.00 0.00 93 1012.1
20260902033032 77 143 0.0 0.0 0.00 0.00 0.00 93 1012.2
20260902032530 77 177 0.0 0.0 0.00 0.00 0.00 93 1012.1
20260902032026 77 152 0.0 0.0 0.00 0.00 0.00 93 1012.6
20260902031520 77 149 0.0 0.0 0.00 0.00 0.00 93 1012.6
20260902031016 77 154 0.0 0.0 0.00 0.00 0.00 93 1012.5
20260902030511 77 149 0.0 0.0 0.00 0.00 0.00 94 1012.3
20260902030011 77 150 0.0 0.0 0.00 0.00 0.00 94 1012.6
20260902025505 78 145 0.0 0.0 0.00 0.00 0.00 94 1012.3
20260902025000 77 149 0.0 0.0 0.00 0.00 0.00 94 1012.2
20260902024456 77 152 0.0 0.0 0.00 0.00 0.00 94 1012.2
20260902023950 77 127 0.0 0.0 0.00 0.00 0.00 94 1012.0
20260902023446 78 182 0.0 0.0 0.00 0.00 0.00 94 1012.2
20260902022946 78 171 0.0 0.0 0.00 0.00 0.00 94 1011.9
20260902022441 78 176 0.0 0.0 0.00 0.00 0.00 94 1012.1
20260902021936 78 163 0.0 0.0 0.00 0.00 0.00 94 1011.8
20260902021431 78 144 0.0 0.0 0.00 0.00 0.00 94 1011.8
20260902020926 78 177 0.0 0.0 0.00 0.00 0.00 94 1011.7
20260902020423 78 163 1.0 1.0 0.00 0.00 0.00 94 1011.5
20260902015918 78 158 0.0 0.0 0.00 0.00 0.00 94 1011.8
20260902015414 78 148 0.0 0.0 0.00 0.00 0.00 94 1011.6
20260902014909 78 151 0.0 0.0 0.00 0.00 0.00 94 1011.7
20260902014406 78 148 0.0 0.0 0.00 0.00 0.00 94 1011.7
20260902013904 78 150 0.0 0.0 0.00 0.00 0.00 94 1011.6
20260902013400 78 150 0.0 0.0 0.00 0.00 0.00 94 1011.2
20260902012855 78 152 0.0 0.0 0.00 0.00 0.00 94 1011.3
20260902012351 78 156 0.0 0.0 0.00 0.00 0.00 94 1011.3
20260902011847 78 154 0.0 0.0 0.00 0.00 0.00 93 1011.4
20260902011341 78 150 0.0 0.0 0.00 0.00 0.00 93 1011.2
20260902010841 78 145 0.0 0.0 0.00 0.00 0.00 93 1011.4
20260902010336 78 150 0.0 0.0 0.00 0.00 0.00 94 1011.3
20260902005835 78 141 0.0 0.0 0.00 0.00 0.00 93 1011.2
20260902005329 78 151 0.0 0.0 0.00 0.00 0.00 93 1011.3
20260902004825 78 154 0.0 0.0 0.00 0.00 0.00 93 1011.5
20260902004319 78 145 0.0 0.0 0.00 0.00 0.00 93 1011.5
20260902003814 78 189 0.0 0.0 0.00 0.00 0.00 93 1011.5
20260902003309 78 150 0.0 0.0 0.00 0.00 0.00 93 1011.8
20260902002805 78 151 0.0 0.0 0.00 0.00 0.00 93 1011.9
20260902002259 78 158 0.0 0.0 0.00 0.00 0.00 93 1011.7
20260902001754 78 146 0.0 0.0 0.00 0.00 0.00 93 1011.9
20260902001250 78 119 0.0 0.0 0.00 0.00 0.00 93 1011.6
20260902000749 78 145 0.0 0.0 0.00 0.00 0.00 93 1011.7
20260902000244 79 148 0.0 0.0 0.00 0.00 0.00 93 1011.7
20260901235739 78 148 0.0 0.0 0.00 0.00 0.00 93 1011.7
20260901235234 79 148 0.0 0.0 0.00 0.00 0.00 93 1011.5
20260901234733 78 151 0.0 0.0 0.00 0.00 0.00 93 1011.3
20260901234233 78 150 0.0 0.0 0.00 0.00 0.00 93 1011.5
20260901233728 78 149 0.0 0.0 0.00 0.00 0.00 93 1011.5
20260901233225 78 163 0.0 0.0 0.00 0.00 0.00 93 1011.8
20260901232725 78 151 0.0 0.0 0.00 0.00 0.00 93 1011.9
20260901232220 78 143 0.0 0.0 0.00 0.00 0.00 93 1011.9
20260901231716 77 150 0.0 0.0 0.00 0.00 0.00 93 1011.9
20260901231212 77 156 0.0 0.0 0.00 0.00 0.00 92 1011.8
20260901230708 77 153 0.0 0.0 0.00 0.00 0.00 92 1011.8
20260901230207 77 147 0.0 0.0 0.00 0.00 0.00 92 1012.0
20260901225703 77 136 0.0 0.0 0.00 0.00 0.00 92 1012.0
20260901225157 77 145 0.0 0.0 0.00 0.00 0.00 92 1012.2
20260901224653 77 157 0.0 1.0 0.00 0.00 0.00 92 1012.1
20260901224149 76 166 0.0 0.0 0.00 0.00 0.00 92 1012.2
20260901223644 76 154 0.0 0.0 0.00 0.00 0.00 92 1012.3
20260901223139 76 156 0.0 0.0 0.00 0.00 0.00 92 1012.3
20260901222636 77 162 0.0 0.0 0.00 0.00 0.00 91 1012.9
20260901222132 77 152 0.0 0.0 0.00 0.00 0.00 91 1012.8
20260901221627 77 144 0.0 0.0 0.00 0.00 0.00 91 1012.9
20260901221123 77 164 0.0 0.0 0.00 0.00 0.00 90 1013.1
20260901220622 77 156 0.0 0.0 0.00 0.00 0.00 90 1013.2
20260901220121 77 155 0.0 0.0 0.00 0.00 0.00 89 1013.3
20260901215619 77 153 0.0 1.0 0.00 0.00 0.00 89 1013.3
20260901215114 77 150 0.0 0.0 0.00 0.00 0.00 88 1013.1
20260901214613 78 81 1.0 2.0 0.00 0.00 0.00 86 1013.0
20260901214113 81 153 1.0 2.0 0.00 0.00 0.00 81 1013.1
20260901213607 83 25 5.0 9.0 0.00 0.00 0.00 78 1012.9
20260901213101 87 21 2.0 3.0 0.00 0.00 0.00 69 1013.0
20260901212601 90 110 1.0 1.0 0.00 0.00 0.00 63 1012.5
20260901212058 92 181 0.0 0.0 0.00 0.00 0.00 60 1012.1
20260901211553 92 151 0.0 0.0 0.00 0.00 0.00 60 1011.9
20260901211050 92 167 0.0 0.0 0.00 0.00 0.00 61 1012.0
20260901210544 92 148 0.0 0.0 0.00 0.00 0.00 62 1011.9
20260901210041 92 241 3.0 3.0 0.00 0.00 0.00 60 1011.9
20260901205536 92 155 1.0 2.0 0.00 0.00 0.00 61 1011.8
20260901205030 93 325 2.0 2.0 0.00 0.00 0.00 60 1012.1
20260901204527 93 165 1.0 1.0 0.00 0.00 0.00 61 1012.0
20260901204027 92 154 0.0 0.0 0.00 0.00 0.00 61 1012.0
20260901203521 91 291 3.0 3.0 0.00 0.00 0.00 63 1012.1
20260901203016 91 238 4.0 5.0 0.00 0.00 0.00 64 1012.0
20260901202511 92 314 4.0 5.0 0.00 0.00 0.00 64 1012.6
20260901202007 92 179 3.0 3.0 0.00 0.00 0.00 64 1012.5
20260901201502 91 174 1.0 2.0 0.00 0.00 0.00 65 1012.8
20260901200956 91 249 3.0 3.0 0.00 0.00 0.00 64 1013.0
20260901200451 91 287 3.0 3.0 0.00 0.00 0.00 64 1013.0
20260901195950 91 259 3.0 5.0 0.00 0.00 0.00 64 1013.1
20260901195449 91 246 4.0 5.0 0.00 0.00 0.00 63 1013.4
20260901194943 92 219 3.0 3.0 0.00 0.00 0.00 62 1013.4
20260901194438 93 152 0.0 0.0 0.00 0.00 0.00 61 1013.1
20260901193935 93 218 0.0 0.0 0.00 0.00 0.00 62 1013.5
20260901193434 93 298 3.0 3.0 0.00 0.00 0.00 61 1013.5
20260901192933 92 153 0.0 0.0 0.00 0.00 0.00 62 1013.4
20260901192429 91 117 0.0 0.0 0.00 0.00 0.00 64 1013.5
20260901191925 92 157 0.0 0.0 0.00 0.00 0.00 61 1013.3
20260901191422 93 264 5.0 6.0 0.00 0.00 0.00 61 1013.2
20260901190917 93 190 1.0 1.0 0.00 0.00 0.00 61 1013.2
20260901190417 94 164 1.0 1.0 0.00 0.00 0.00 60 1013.0
20260901185915 94 200 0.0 1.0 0.00 0.00 0.00 61 1013.1
20260901185414 92 157 0.0 1.0 0.00 0.00 0.00 63 1013.3
20260901184909 93 351 3.0 5.0 0.00 0.00 0.00 63 1013.5
20260901184405 93 166 1.0 1.0 0.00 0.00 0.00 63 1013.3
20260901183905 91 176 1.0 1.0 0.00 0.00 0.00 64 1013.6
20260901183404 91 252 3.0 3.0 0.00 0.00 0.00 64 1013.4
20260901182901 91 175 2.0 2.0 0.00 0.00 0.00 65 1013.4
20260901182355 93 203 1.0 1.0 0.00 0.00 0.00 64 1013.5
20260901181850 93 247 1.0 2.0 0.00 0.00 0.00 62 1013.6
20260901181345 94 204 3.0 3.0 0.00 0.00 0.00 62 1013.8
20260901180844 92 166 0.0 0.0 0.00 0.00 0.00 64 1013.7
20260901180343 91 250 3.0 3.0 0.00 0.00 0.00 65 1013.9
20260901175842 93 141 0.0 0.0 0.00 0.00 0.00 63 1014.0
20260901175337 91 145 0.0 0.0 0.00 0.00 0.00 64 1014.1
20260901174832 90 250 2.0 3.0 0.00 0.00 0.00 67 1014.1
20260901174327 89 326 1.0 2.0 0.00 0.00 0.00 68 1014.2
20260901173823 89 145 2.0 2.0 0.00 0.00 0.00 69 1014.4
20260901173318 89 185 2.0 2.0 0.00 0.00 0.00 69 1014.6
20260901172815 89 160 3.0 3.0 0.00 0.00 0.00 69 1014.8
20260901172314 88 152 0.0 1.0 0.00 0.00 0.00 70 1014.8
20260901171811 88 358 2.0 2.0 0.00 0.00 0.00 70 1014.9
20260901171311 89 218 2.0 2.0 0.00 0.00 0.00 70 1015.0
20260901170811 89 155 2.0 2.0 0.00 0.00 0.00 71 1015.0
20260901170311 88 260 2.0 2.0 0.00 0.00 0.00 71 1015.0
20260901165809 88 161 0.0 0.0 0.00 0.00 0.00 71 1015.1
20260901165306 88 273 1.0 1.0 0.00 0.00 0.00 72 1015.1
20260901164801 88 281 5.0 5.0 0.00 0.00 0.00 71 1015.1
20260901164256 88 155 1.0 1.0 0.00 0.00 0.00 71 1015.4
20260901163751 88 143 0.0 0.0 0.00 0.00 0.00 71 1015.3
20260901163251 89 150 0.0 1.0 0.00 0.00 0.00 70 1015.2
20260901162746 88 153 1.0 2.0 0.00 0.00 0.00 71 1015.3
20260901162245 88 146 0.0 0.0 0.00 0.00 0.00 70 1015.4
20260901161744 89 27 4.0 6.0 0.00 0.00 0.00 70 1015.4
20260901161239 89 137 1.0 1.0 0.00 0.00 0.00 71 1015.3
20260901160735 88 135 1.0 2.0 0.00 0.00 0.00 72 1015.3
20260901160231 88 143 4.0 7.0 0.00 0.00 0.00 72 1015.3
20260901155729 87 164 0.0 0.0 0.00 0.00 0.00 72 1015.2
20260901155224 87 342 5.0 5.0 0.00 0.00 0.00 72 1015.1
20260901154719 87 287 5.0 6.0 0.00 0.00 0.00 72 1015.2
20260901154209 88 157 1.0 2.0 0.00 0.00 0.00 72 1015.2
20260901153704 87 155 0.0 1.0 0.00 0.00 0.00 72 1015.3
20260901153203 87 48 2.0 2.0 0.00 0.00 0.00 72 1015.3
20260901152658 87 19 1.0 1.0 0.00 0.00 0.00 73 1015.3
20260901152156 87 9 2.0 2.0 0.00 0.00 0.00 73 1015.3
20260901151653 87 44 1.0 1.0 0.00 0.00 0.00 73 1015.5
20260901151152 87 48 1.0 1.0 0.00 0.00 0.00 74 1015.2
20260901150651 87 66 1.0 1.0 0.00 0.00 0.00 74 1015.3
20260901150149 86 111 0.0 0.0 0.00 0.00 0.00 75 1015.4
20260901145648 86 350 0.0 2.0 0.00 0.00 0.00 76 1015.4
20260901145148 87 113 0.0 1.0 0.00 0.00 0.00 75 1015.5
20260901144644 86 157 0.0 0.0 0.00 0.00 0.00 76 1015.3
20260901144138 87 106 1.0 1.0 0.00 0.00 0.00 75 1015.4
20260901143633 87 57 1.0 1.0 0.00 0.00 0.00 75 1015.2
20260901143130 86 145 2.0 2.0 0.00 0.00 0.00 76 1015.5
20260901142626 86 142 0.0 1.0 0.00 0.00 0.00 77 1015.5
20260901142125 86 191 1.0 1.0 0.00 0.00 0.00 77 1015.6
20260901141619 86 149 1.0 1.0 0.00 0.00 0.00 75 1015.5
20260901141114 86 155 0.0 0.0 0.00 0.00 0.00 77 1015.5
20260901140613 84 147 1.0 1.0 0.00 0.00 0.00 80 1015.6
20260901140112 83 156 0.0 0.0 0.00 0.00 0.00 81 1015.8
20260901135612 82 167 0.0 0.0 0.00 0.00 0.00 82 1015.3